[[{"header":{"parameterUnit":"m.s-1","parameterCategory":1,"la1":30.2991,"la2":30.254,"lo1":-89.0895,"lo2":-89.0444,"dy":0.0017,"dx":0.0017,"nx":28,"ny":28,"refTime":"2023-08-19T21:00:00:Z","depth":0,"parameterNumber":2,"parameterNumberName":"U-component_of_WINDS"},"data":[0,0,0,0,0,0,0,0,0,0,0,0,0,0,0,0,0,0,0,0,0,0,0,0,0,0,0,0,0,0,0,0,0,0,0,0,0,0,0,0,0,0,0,0,0,0,0,0,0,0,0,0,0,0,0,0,0,0,1.6333,1.6334,0,1.6407,1.6408,1.6409,1.6421,1.6421,1.642,1.6419,1.6499,1.6502,1.6504,0,0,0,0,0,0,0,0,0,0,0,0,0,1.6207,1.6209,1.6333,1.6334,1.6335,1.6407,1.6408,1.6409,1.6421,1.6421,1.642,1.6419,1.6498,1.6501,1.6505,0,0,0,0,0,0,0,0,0,0,0,0,0,1.6269,1.621,1.6333,1.635,1.6352,1.6407,1.6408,1.6409,1.6421,1.642,1.642,1.6419,1.6497,1.6501,1.6505,1.655,0,0,1.6518,1.6519,0,0,0,0,0,0,0,0,1.6266,1.6274,1.6346,1.6348,1.6351,1.6404,1.6393,1.6457,1.6422,1.6395,1.6419,1.6418,1.6468,1.6475,1.6491,1.6554,1.6557,1.6518,1.652,1.6522,1.6523,0,0,0,0,0,0,0,1.6262,1.6271,1.6362,1.6347,1.635,1.6355,1.6363,1.6405,1.6436,1.6397,1.6398,1.6407,1.647,1.6487,1.6493,1.6558,1.6518,1.6521,1.6524,1.6526,1.6664,1.6665,0,0,0,0,0,0,1.6254,1.6267,1.636,1.6365,1.6305,1.6358,1.6367,1.6388,1.6436,1.6442,1.6408,1.6407,1.648,1.6488,1.6496,1.6553,1.6522,1.6526,1.6528,1.6663,1.6664,1.6666,0,0,0,0,0,0,1.6251,1.6262,1.6357,1.6316,1.6329,1.6361,1.6385,1.639,1.6407,1.6444,1.645,1.6419,1.648,1.649,1.6537,1.6556,1.6528,1.6532,1.6661,1.6663,1.6665,1.6667,0,0,0,0,0,0,1.6247,1.6261,1.6277,1.6317,1.6331,1.6395,1.6386,1.6392,1.6414,1.6414,1.6456,1.6462,1.648,1.653,1.6541,1.6561,1.6535,1.666,1.6662,1.6664,1.6665,1.6669,1.6671,0,0,0,0,0,1.6243,1.6274,1.6277,1.6289,1.6351,1.6396,1.6405,1.6423,1.6415,1.6433,1.6457,1.6461,1.6552,1.6535,1.6547,1.6569,1.6659,1.6662,1.6664,1.6664,1.6668,1.6671,0,0,0,0,0,0,1.6237,1.628,1.6284,1.6329,1.6359,1.6398,1.642,1.6426,1.646,1.6459,1.6482,1.6491,1.6537,1.6558,1.6538,1.6616,1.6605,1.661,1.6601,1.6605,1.6608,1.6603,1.6538,0,0,0,0,0,1.6241,1.6272,1.6309,1.6345,1.636,1.6388,1.6408,1.642,1.6452,1.6465,1.6492,1.6524,1.656,1.6584,1.6619,1.6668,1.6679,1.6689,1.6692,1.6695,1.6699,1.6729,1.6735,1.6675,1.6675,1.6675,0,0,1.6249,1.6277,1.6295,1.6345,1.6369,1.6403,1.6398,1.6434,1.646,1.6471,1.6516,1.6538,1.6575,1.6624,1.6647,1.6643,1.6718,1.6698,1.67,1.6703,1.6733,1.6739,1.6744,1.6677,1.6676,1.6676,0,0,1.6282,1.6305,1.6339,1.6364,1.6401,1.642,1.6428,1.6467,1.6481,1.6527,1.6537,1.6569,1.663,1.6657,1.6679,1.6724,1.6731,1.6735,1.6752,1.6781,1.6785,1.679,1.6808,1.6814,1.674,1.674,1.674,0,1.6289,1.6338,1.6356,1.6392,1.6415,1.6426,1.6462,1.6485,1.6532,1.6548,1.6542,1.6621,1.6647,1.6703,1.6714,1.6731,1.6743,1.6731,1.6783,1.6788,1.6792,1.681,1.6816,1.674,1.674,1.674,1.674,0,1.6346,1.638,1.6404,1.6448,1.6473,1.6509,1.6534,1.6558,1.6568,1.6588,1.6636,1.6668,1.671,1.6725,1.6735,1.6783,1.678,1.6778,1.6768,1.6798,1.6815,1.6822,1.6741,1.674,1.674,1.674,0,0,1.6377,1.6431,1.644,1.6461,1.6504,1.6532,1.6569,1.661,1.6631,1.6663,1.6696,1.6748,1.6748,1.6773,1.6786,1.6812,1.6848,1.6807,1.6809,1.6815,1.6906,1.6908,1.6915,1.6852,1.6854,1.6855,1.6903,0,1.6416,1.6481,1.6499,1.6555,1.6589,1.6601,1.6634,1.6664,1.6684,1.6717,1.6739,1.6777,1.6772,1.6787,1.6813,1.6838,1.6867,1.6835,1.6885,1.6887,1.6877,1.6924,1.6925,1.697,1.691,1.6911,1.6912,0,1.647,1.6504,1.6563,1.6603,1.6618,1.6646,1.6687,1.6717,1.6753,1.6766,1.6794,1.6806,1.6848,1.6834,1.6893,1.6871,1.6893,1.6909,1.6911,1.6917,1.6902,1.6933,1.6984,1.6991,1.6922,1.6921,1.6921,0,1.6489,1.6549,1.6593,1.661,1.6657,1.6678,1.6699,1.6733,1.6758,1.6793,1.681,1.685,1.6872,1.6904,1.6927,1.6915,1.6985,1.6973,1.6998,1.6998,1.7013,1.7012,1.707,1.7025,1.7025,1.7025,1.7024,0,1.6532,1.6568,1.6602,1.6629,1.6671,1.6692,1.6733,1.6755,1.6786,1.6819,1.6832,1.6863,1.6891,1.6926,1.6945,1.6992,1.7001,1.7014,1.7019,1.7014,1.7012,1.7029,1.7027,1.7026,1.7026,1.7026,1.7025,0,1.6561,1.6584,1.6633,1.6674,1.6685,1.6714,1.675,1.6778,1.6798,1.684,1.6851,1.6884,1.6927,1.6952,1.7006,1.7019,1.7071,1.7074,1.7059,1.7061,1.7086,1.7084,1.7158,1.7169,1.7115,1.7115,1.7116,0,1.6587,1.6615,1.6659,1.6682,1.6703,1.6739,1.6763,1.6786,1.6812,1.6856,1.6879,1.6922,1.6958,1.7025,1.7055,1.7097,1.7102,1.7125,1.7108,1.7103,1.7104,1.7103,1.7107,1.7128,1.7128,1.7129,1.7129,0,1.6632,1.6643,1.6677,1.6717,1.6746,1.6778,1.681,1.6828,1.6857,1.6886,1.6929,1.6956,1.7012,1.7055,1.71,1.7123,1.7132,1.7134,1.7142,1.7138,1.7129,1.7136,1.7068,1.7132,1.7132,1.7132,1.7132,1.7132,1.6661,1.6688,1.6723,1.6762,1.6789,1.6819,1.6848,1.6872,1.6908,1.6954,1.6966,1.7012,1.7049,1.711,1.7134,1.7172,1.7168,1.718,1.7183,1.7186,1.7188,1.7122,1.718,1.718,1.718,1.718,1.7179,0,1.6708,1.6732,1.6768,1.6812,1.6844,1.6848,1.6884,1.6911,1.695,1.6984,1.7019,1.707,1.7112,1.7145,1.719,1.7213,1.7219,1.7224,1.7223,1.7229,1.7187,1.7176,1.7219,1.7219,1.7219,1.7219,1.7219,1.7219,1.6737,1.6782,1.6798,1.6857,1.6881,1.6925,1.6946,1.6975,1.7002,1.7058,1.7093,1.7114,1.7148,1.7195,1.7235,1.7244,1.7261,1.7266,1.7276,1.7236,1.7232,1.7228,1.7218,1.7269,1.7269,1.7315,1.7315,1.7316]},{"header":{"parameterUnit":"m.s-1","parameterCategory":1,"la1":30.2991,"la2":30.254,"lo1":-89.0895,"lo2":-89.0444,"dy":0.0017,"dx":0.0017,"nx":28,"ny":28,"refTime":"2023-08-19T21:00:00:Z","depth":0,"parameterNumber":3,"parameterNumberName":"V-component_of_WINDS"},"data":[0,0,0,0,0,0,0,0,0,0,0,0,0,0,0,0,0,0,0,0,0,0,0,0,0,0,0,0,0,0,0,0,0,0,0,0,0,0,0,0,0,0,0,0,0,0,0,0,0,0,0,0,0,0,0,0,0,0,2.745,2.7451,0,2.751,2.7511,2.7511,2.7521,2.7521,2.752,2.752,2.7579,2.7581,2.7583,0,0,0,0,0,0,0,0,0,0,0,0,0,2.7339,2.7341,2.745,2.7451,2.7452,2.751,2.7511,2.7511,2.7521,2.7521,2.752,2.7519,2.7578,2.7581,2.7583,0,0,0,0,0,0,0,0,0,0,0,0,0,2.7392,2.7341,2.745,2.7464,2.7465,2.751,2.7511,2.7512,2.7521,2.7521,2.752,2.7519,2.7577,2.758,2.7583,2.7618,0,0,2.7593,2.7594,0,0,0,0,0,0,0,0,2.7389,2.7396,2.7461,2.7463,2.7465,2.7507,2.7493,2.7547,2.7522,2.75,2.752,2.7519,2.7556,2.756,2.7573,2.7621,2.7623,2.7593,2.7595,2.7596,2.7597,0,0,0,0,0,0,0,2.7385,2.7393,2.7474,2.7462,2.7464,2.7465,2.7471,2.7503,2.7531,2.7502,2.7503,2.751,2.7556,2.757,2.7575,2.7624,2.7593,2.7596,2.7598,2.7599,2.7697,2.7698,0,0,0,0,0,0,2.7379,2.739,2.7472,2.7475,2.7424,2.7467,2.7475,2.7494,2.7531,2.7536,2.751,2.751,2.7565,2.7571,2.7577,2.7616,2.7596,2.7599,2.7601,2.7696,2.7697,2.7698,0,0,0,0,0,0,2.7377,2.7387,2.7469,2.7433,2.7444,2.747,2.7492,2.7496,2.751,2.7537,2.7542,2.752,2.7565,2.7572,2.7606,2.7618,2.7601,2.7603,2.7695,2.7696,2.7697,2.7697,0,0,0,0,0,0,2.7374,2.7386,2.7401,2.7433,2.7446,2.75,2.7493,2.7498,2.7515,2.7515,2.7547,2.7552,2.7565,2.7602,2.7609,2.7622,2.7606,2.7694,2.7696,2.7697,2.7696,2.7698,2.77,0,0,0,0,0,2.737,2.7399,2.7402,2.7411,2.7465,2.7501,2.7507,2.7522,2.7516,2.753,2.7547,2.7551,2.7616,2.7605,2.7614,2.7628,2.7694,2.7695,2.7697,2.7695,2.7698,2.77,0,0,0,0,0,0,2.7368,2.7404,2.7407,2.7448,2.7471,2.7502,2.7521,2.7525,2.755,2.7549,2.7566,2.7573,2.7605,2.762,2.7608,2.766,2.7654,2.7657,2.765,2.7652,2.7654,2.7649,2.7608,0,0,0,0,0,2.7372,2.7399,2.7428,2.7461,2.7473,2.7494,2.7511,2.752,2.7544,2.7554,2.7574,2.7596,2.7621,2.7638,2.7663,2.7698,2.7703,2.7711,2.7713,2.7715,2.7717,2.7733,2.7736,2.7703,2.7703,2.7703,0,0,2.7381,2.7404,2.742,2.7461,2.7481,2.7506,2.7503,2.7531,2.7549,2.7558,2.7591,2.7606,2.7631,2.7665,2.7681,2.7679,2.7727,2.7717,2.7718,2.772,2.7735,2.7738,2.7741,2.7705,2.7704,2.7704,0,0,2.741,2.7432,2.7459,2.7478,2.7506,2.752,2.7526,2.7556,2.7566,2.7599,2.7604,2.7625,2.767,2.7687,2.7701,2.7731,2.7734,2.7739,2.7748,2.7763,2.7766,2.7768,2.7776,2.7779,2.7741,2.7741,2.7741,0,2.7418,2.7458,2.7473,2.75,2.7516,2.7524,2.7551,2.7568,2.7602,2.7612,2.7609,2.7661,2.768,2.7716,2.7722,2.7735,2.774,2.7735,2.7764,2.7767,2.7769,2.7777,2.778,2.7741,2.7741,2.7741,2.7741,0,2.7464,2.7491,2.751,2.7542,2.756,2.7587,2.7604,2.762,2.7627,2.7639,2.767,2.7692,2.772,2.7729,2.7736,2.7764,2.7762,2.7761,2.7755,2.7772,2.7779,2.7783,2.7742,2.7742,2.7742,2.7742,0,0,2.7495,2.7533,2.7539,2.7552,2.7582,2.7603,2.7628,2.7654,2.7666,2.7689,2.7709,2.7743,2.7742,2.7758,2.7766,2.778,2.7798,2.7777,2.7778,2.7778,2.7827,2.7826,2.783,2.78,2.7801,2.7802,2.7824,0,2.7526,2.7572,2.7584,2.7622,2.7645,2.7651,2.7673,2.7692,2.7704,2.7723,2.7736,2.7759,2.7757,2.7766,2.778,2.7793,2.7808,2.7792,2.7817,2.7817,2.7809,2.7834,2.7835,2.7855,2.7827,2.7828,2.7828,0,2.7569,2.7591,2.7631,2.7654,2.7664,2.7683,2.7706,2.7726,2.7746,2.7754,2.7769,2.7776,2.7799,2.7791,2.7822,2.7811,2.7821,2.7829,2.783,2.7832,2.7823,2.7835,2.7862,2.7865,2.7834,2.7833,2.7833,0,2.7584,2.7624,2.7652,2.7663,2.7692,2.7704,2.7716,2.7736,2.775,2.777,2.7778,2.78,2.7812,2.7828,2.7839,2.7833,2.7867,2.7862,2.7872,2.7872,2.7879,2.7879,2.7907,2.7888,2.7888,2.7888,2.7888,0,2.7616,2.7639,2.7658,2.7676,2.7701,2.7714,2.7738,2.775,2.7767,2.7784,2.7791,2.7807,2.7822,2.7839,2.7848,2.787,2.7876,2.7881,2.7882,2.7879,2.7879,2.7886,2.7885,2.7889,2.7889,2.7888,2.7888,0,2.7637,2.7651,2.7682,2.7705,2.7711,2.7729,2.7748,2.7763,2.7774,2.7796,2.7802,2.7819,2.7839,2.7852,2.7878,2.7883,2.7907,2.7909,2.79,2.7901,2.791,2.7909,2.7943,2.7948,2.7927,2.7928,2.7928,0,2.7656,2.7674,2.7698,2.7711,2.7723,2.7743,2.7757,2.7768,2.7782,2.7804,2.7816,2.7837,2.7855,2.7886,2.79,2.7919,2.792,2.7931,2.7923,2.7919,2.7918,2.7916,2.7917,2.7932,2.7932,2.7933,2.7933,0,2.7686,2.7692,2.7711,2.7732,2.7748,2.7766,2.7783,2.7792,2.7806,2.7821,2.7841,2.7855,2.788,2.79,2.7919,2.793,2.7933,2.7935,2.7938,2.7935,2.7928,2.793,2.7902,2.7934,2.7934,2.7934,2.7934,2.7934,2.7706,2.772,2.7739,2.776,2.7773,2.7788,2.7803,2.7815,2.7832,2.7854,2.786,2.7881,2.7897,2.7924,2.7934,2.795,2.7948,2.7953,2.7954,2.7955,2.7954,2.7926,2.7953,2.7953,2.7953,2.7953,2.7953,0,2.7734,2.7746,2.7765,2.7788,2.7803,2.7804,2.7822,2.7835,2.7853,2.7869,2.7885,2.7907,2.7925,2.7939,2.7957,2.7966,2.7968,2.797,2.7969,2.7971,2.7956,2.795,2.7969,2.7969,2.7969,2.7969,2.7969,2.7969,2.7751,2.7775,2.7782,2.7812,2.7823,2.7844,2.7853,2.7866,2.7878,2.7902,2.7918,2.7926,2.794,2.7959,2.7975,2.7978,2.7984,2.7986,2.7989,2.7974,2.7973,2.7971,2.7966,2.7987,2.7987,2.8003,2.8003,2.8003]}]]